sat.trackr.live / text

‹ back to catalog

STARLINK-32287

NORAD 60358 · 2024-138D

PAYLOAD ACTIVE UNKNOWN

§ Identity

Operator
Country
US
Launch date
2024-08-04
Launch site
AFWTR
Launch vehicle
Mass (kg)
RCS (m²)

Purposes: comms

External: N2YO · Heavens-Above · Gunter

§ Orbital elements

Epoch: 2026-09-21T19:57:50.866272Z

Period
93.85 min
Inclination
53.1596°
Eccentricity
0.0001070
Mean motion
15.34375986 rev/d
Perigee alt
462.0 km
Apogee alt
463.5 km
Semi-major
6,840.9 km
B*
5.3152e-5
RAAN
117.4289°
Arg perigee
81.1375°
Mean anomaly
278.9749°
Rev number
12,067

§ Raw data

STARLINK-322871 60358U 24138D   26264.83183873  .00001419  00000+0  53152-4 0  99952 60358  53.1596 117.4289 0001070  81.1375 278.9749 15.34375986120671

JSON: /api/v1/satellites/60358 · /tle

For live sub-satellite position, see the globe view (requires WebGL).

§ Visibility from observer

Set your observer location to see the next 7 days of passes ≥ 10°. The values pass through the URL so the page stays shareable.

No JS? Fill the form by hand. The geolocation button needs JavaScript.